Theta_e
319 319 328 328 331 330 329 328 331 332 341 337 337 337 337 340 342 345 350 347 345 344 342 344 347 348 350 349 348 347 346 345 344 343 346 347 348 346 348 347 346 345 345 346
325 324 330 332 328 328 332 330 331 332 333 332 337 339 341 342 343 348 350 347 345 342 342 344 346 347 349 350 351 351 349 348 348 345 345 347 348 346 343 345 342 346 346 346
328 328 329 331 329 329 332 331 331 333 330 333 342 342 341 343 344 348 349 347 344 342 340 343 346 348 348 349 350 350 350 350 350 349 350 349 348 345 344 342 337 345 344 344
331 330 334 327 327 328 328 333 330 332 331 331 339 341 340 341 344 347 347 345 342 341 341 343 345 345 345 346 346 346 347 347 347 346 346 346 346 345 345 345 343 345 343 342
334 332 329 333 333 332 332 331 331 332 333 333 335 339 340 338 341 345 344 343 342 342 341 340 342 342 341 341 343 342 343 343 344 343 344 341 341 341 342 345 344 343 342 342
329 333 336 330 330 330 329 333 331 331 331 336 339 345 343 338 339 342 342 341 340 340 338 337 337 335 335 337 337 338 339 341 341 342 343 343 342 341 340 338 338 338 339 339
327 329 328 330 334 331 334 332 330 329 330 337 339 340 338 337 338 341 341 339 339 338 336 334 332 331 332 333 333 336 338 339 339 339 340 340 339 339 339 339 339 339 340 336
325 329 332 332 334 333 328 328 329 331 332 334 334 334 337 339 340 340 339 338 339 338 339 337 333 334 336 339 340 342 343 341 340 340 341 339 338 337 336 339 337 335 334 332
328 326 328 330 330 328 325 327 332 332 332 332 335 337 338 341 341 340 340 339 339 338 338 339 339 339 341 343 343 343 341 339 338 337 337 338 339 340 339 338 337 334 332 330
327 329 330 327 329 329 328 328 328 328 333 339 338 339 341 341 340 340 339 339 339 338 337 338 340 341 343 343 342 339 337 337 335 336 336 336 336 337 337 337 335 334 332 329
327 326 325 330 330 328 330 329 328 330 333 334 344 342 342 342 341 340 340 340 340 338 337 339 341 342 342 340 337 336 335 335 334 334 333 333 332 332 333 334 334 333 332 331
327 324 324 324 324 327 329 329 328 331 334 333 340 343 342 341 341 340 339 339 337 335 337 338 339 339 338 336 333 333 333 334 333 331 331 331 330 330 331 332 332 331 331 331
324 323 323 324 325 328 328 328 328 332 333 334 335 341 341 339 339 339 337 337 335 334 336 336 336 335 334 334 332 332 332 334 332 329 327 326 327 328 327 328 329 329 329 329
323 325 327 326 327 326 327 327 329 333 337 337 339 339 337 336 335 336 336 336 337 335 335 335 333 331 332 332 331 331 334 334 334 331 329 327 327 327 327 327 326 325 326 328
316 320 322 322 323 325 327 328 331 334 337 338 341 338 336 334 334 335 335 336 336 335 335 333 331 331 333 330 330 330 331 335 335 334 332 330 330 328 327 326 326 324 324 324
317 318 318 321 323 326 328 330 332 332 338 336 337 336 335 335 333 331 333 334 332 331 333 331 331 331 332 331 330 332 332 334 334 334 332 332 331 332 330 329 328 326 324 324
318 320 321 322 324 325 326 329 330 330 336 335 334 336 336 335 333 330 330 333 333 333 331 331 332 332 332 332 331 332 332 333 332 332 331 331 331 331 330 330 330 328 325 323
316 318 317 322 323 326 329 330 331 331 332 334 333 336 334 333 332 329 330 332 332 331 331 330 332 332 332 333 333 333 334 332 332 333 332 331 331 332 331 331 331 330 328 325
317 318 320 322 323 326 330 332 332 332 332 333 334 335 334 333 332 328 330 329 329 329 330 331 332 332 332 332 333 333 333 332 332 333 332 331 331 331 331 330 330 329 329 329
323 324 321 324 328 328 328 330 332 332 332 332 334 334 333 330 329 326 329 329 330 330 330 332 332 332 331 332 333 334 333 334 334 331 331 331 331 330 330 327 328 329 328 329
327 327 324 327 328 328 330 332 332 332 332 332 333 333 332 328 326 326 327 327 330 331 331 331 332 332 332 332 333 334 334 329 330 330 331 330 329 330 328 322 321 322 323 326
321 324 328 329 328 329 331 332 332 331 332 332 332 332 330 326 325 325 327 328 329 331 332 331 332 332 331 332 332 330 328 326 324 322 323 326 327 327 325 321 322 322 321 322
326 330 332 330 331 331 332 331 331 331 331 332 331 330 328 327 326 325 324 326 328 331 331 331 330 331 330 330 331 330 328 326 323 321 322 324 325 324 321 321 322 322 321 322
328 330 330 331 332 332 332 331 331 332 330 330 333 331 329 328 328 328 328 327 327 327 329 330 330 330 331 331 331 329 327 328 324 321 322 326 325 324 323 322 321 321 321 323
329 329 330 332 333 330 328 330 330 328 328 328 329 333 333 331 330 331 330 331 330 330 330 330 330 330 330 329 327 327 326 327 326 324 325 326 326 324 323 323 322 324 324 323
326 328 328 329 328 329 328 329 326 327 329 326 327 329 330 332 334 334 334 334 334 333 333 333 332 331 330 329 327 326 327 326 325 325 324 325 326 324 324 323 325 326 325 325
325 327 327 328 328 327 328 328 328 327 327 328 328 328 329 328 328 328 330 332 334 335 333 331 330 328 327 326 326 325 325 325 326 326 327 327 328 328 327 326 326 326 326 325
Wind_Speed
6 7 5 6 7 7 5 6 6 5 7 8 10 10 8 6 6 10 10 7 5 5 5 9 9 8 9 16 24 27 29 34 41 40 32 32 25 20 24 27 27 32 34 30
4 5 7 5 8 9 4 4 1 2 5 6 6 5 7 9 10 12 13 10 7 6 5 6 4 2 3 5 7 13 22 31 32 32 36 31 30 33 27 27 15 22 28 34
4 4 5 3 8 9 6 5 7 5 9 4 5 8 13 12 13 14 14 12 11 9 9 13 9 5 2 3 3 7 12 19 27 27 31 32 31 33 34 32 29 23 16 17
3 0 5 7 4 4 7 8 8 4 5 7 9 16 8 11 14 14 14 11 8 8 12 13 9 7 6 4 2 3 7 9 9 14 22 23 23 24 27 34 33 35 29 22
3 3 5 2 3 6 7 9 8 8 8 8 4 5 2 8 10 17 16 12 14 20 20 16 14 10 9 8 7 5 4 3 2 3 6 11 17 17 19 23 22 23 26 27
2 4 7 7 5 6 2 3 4 7 7 7 11 8 10 13 11 8 12 20 23 24 22 18 17 17 16 13 12 9 7 5 5 5 1 4 8 11 14 10 13 12 14 24
4 4 6 3 8 6 7 5 13 6 3 9 8 10 14 13 9 11 20 23 25 26 26 22 19 18 16 13 10 9 8 7 6 4 1 2 6 8 5 6 4 1 5 7
2 2 5 5 5 3 3 2 5 7 4 3 11 7 11 16 13 15 15 20 22 21 23 23 20 16 13 10 10 8 7 5 6 5 4 4 2 6 7 10 8 6 7 6
7 4 4 3 2 3 2 2 2 5 13 12 7 8 13 13 16 15 20 23 23 22 23 22 19 15 14 13 14 11 9 7 5 5 4 5 5 6 7 14 9 10 9 7
3 3 6 5 3 3 4 4 4 5 10 9 8 7 7 13 14 14 18 21 21 23 19 17 16 14 16 18 15 11 9 8 5 7 7 5 5 6 6 6 6 6 6 6
4 5 6 3 4 5 4 6 9 10 8 11 2 8 13 13 14 15 20 21 24 22 21 19 18 17 19 19 12 9 7 8 8 9 8 7 6 6 6 5 4 3 3 3
5 5 4 6 5 3 5 5 7 7 11 10 6 3 6 12 15 20 20 23 21 23 24 22 19 18 18 15 12 11 10 11 11 10 10 10 9 9 7 6 3 3 2 2
9 6 7 8 7 4 3 4 7 9 5 5 8 4 3 12 14 21 22 23 24 27 27 24 19 16 15 16 13 13 13 13 11 10 10 11 11 13 12 9 7 5 5 4
8 4 4 5 6 5 5 6 8 10 8 7 5 12 12 7 18 21 22 26 29 29 26 23 20 17 15 15 12 15 15 14 13 11 9 9 11 11 13 14 11 6 6 7
11 10 11 7 5 8 5 4 7 7 5 1 12 12 19 3 7 16 23 30 30 28 26 23 21 18 17 14 14 14 14 15 15 13 10 7 7 7 8 7 8 9 9 8
13 12 10 8 11 11 7 7 7 6 1 3 8 13 20 22 16 16 29 33 27 19 26 24 23 21 20 19 16 16 14 12 11 14 11 11 9 7 7 6 7 8 9 9
6 6 7 6 9 12 11 11 9 4 4 4 5 14 15 21 16 14 21 32 30 30 26 23 22 20 20 20 18 15 12 14 12 12 11 11 10 8 9 8 7 6 7 7
14 12 10 8 7 7 9 9 9 8 6 8 11 13 15 12 14 18 24 30 26 24 24 21 20 21 19 19 17 15 14 14 14 13 12 11 11 9 10 9 9 8 6 5
10 15 11 9 8 7 7 9 11 14 13 11 7 12 20 24 21 22 28 28 25 21 23 20 20 22 19 17 15 15 13 12 14 13 12 12 12 12 12 13 14 13 12 11
9 8 8 10 8 7 6 13 10 15 19 17 6 5 7 13 20 25 28 22 27 28 25 22 21 20 19 18 16 14 11 11 12 13 14 14 14 12 12 14 18 18 18 18
13 11 13 11 9 12 14 15 14 10 18 22 18 18 18 19 25 26 19 10 25 24 25 23 22 21 19 19 18 16 13 10 11 16 20 20 19 18 15 15 14 14 17 20
5 9 9 8 11 9 17 18 16 14 16 20 22 20 20 19 23 24 27 23 22 23 24 23 22 22 20 19 16 15 14 13 14 12 15 18 18 19 19 15 15 15 15 17
5 5 6 7 8 10 20 16 14 20 16 17 20 23 24 24 28 17 6 17 20 23 22 23 24 24 22 21 20 18 15 14 15 13 8 15 18 20 20 18 16 16 15 15
7 4 6 12 13 9 7 8 11 16 20 20 14 16 16 20 16 15 10 12 17 20 22 23 24 25 24 23 23 21 19 17 15 13 13 11 17 26 25 20 16 16 18 15
6 14 9 8 4 3 4 4 3 19 20 17 15 10 11 12 15 17 12 8 12 17 20 21 22 21 26 23 21 22 19 18 15 13 10 10 12 18 25 25 20 16 15 14
8 5 7 9 8 6 4 6 9 12 10 8 5 4 6 8 11 13 15 15 14 14 18 17 16 16 24 24 20 18 16 14 13 12 12 9 7 8 7 9 9 6 6 5
17 17 13 12 10 4 10 11 9 7 8 13 15 13 10 9 10 11 11 13 12 14 16 13 11 8 8 9 10 11 11 11 9 10 9 9 8 8 8 8 6 4 4 5
Wind_Direction
237 207 200 177 166 167 161 174 148 218 206 231 223 202 229 168 156 144 129 134 121 124 119 125 145 176 203 227 235 233 234 235 236 239 238 239 236 266 257 251 247 244 244 241
246 228 201 191 173 182 166 133 179 151 252 220 178 138 158 194 167 153 144 152 170 165 140 136 148 208 240 243 236 226 228 232 243 237 237 230 230 211 230 242 258 255 244 240
253 206 110 330 195 186 179 180 152 166 223 182 169 194 189 183 173 158 156 162 176 162 163 152 148 154 181 236 224 225 236 243 237 230 233 228 218 208 215 227 229 231 235 237
217 155 197 231 276 216 189 172 205 154 172 204 210 204 166 187 163 155 158 176 159 152 156 134 140 134 121 122 135 213 228 237 244 236 225 223 222 219 218 219 220 226 227 236
188 193 278 276 212 161 170 235 194 181 188 210 202 82 154 184 178 168 175 168 165 172 147 144 147 142 128 112 100 91 60 20 349 227 204 208 210 215 227 224 216 226 240 248
160 176 199 233 317 347 86 256 281 190 166 161 145 170 210 190 167 168 155 159 153 154 144 148 148 141 129 116 108 95 77 62 52 49 77 208 213 208 200 195 217 236 270 265
181 209 285 277 287 281 142 227 313 314 319 157 173 205 207 150 146 159 156 150 153 152 153 157 154 148 134 134 130 123 111 98 91 77 73 221 205 183 216 202 190 229 241 218
106 143 239 345 310 181 180 8 302 330 329 313 281 170 155 161 146 146 140 142 152 151 160 165 168 166 157 162 160 157 149 128 109 86 77 109 184 213 198 179 165 178 175 179
189 218 238 309 7 297 301 190 326 307 317 291 242 212 162 161 149 156 151 154 155 156 163 175 179 180 173 168 165 158 149 136 126 129 120 128 131 152 193 208 212 194 188 173
17 282 261 299 267 231 271 292 316 358 327 309 236 201 147 144 140 144 147 152 152 150 156 175 191 194 184 165 161 161 145 141 138 127 133 129 129 130 142 158 167 176 180 183
284 272 278 272 234 295 305 307 338 356 355 329 258 181 155 148 145 147 147 145 151 150 155 161 162 159 165 163 155 149 152 164 168 147 138 132 126 118 119 134 157 166 175 174
230 239 180 253 279 263 301 315 319 327 335 338 316 214 179 148 144 143 142 145 148 156 156 157 160 159 165 166 160 163 180 178 168 165 155 157 153 134 127 119 115 90 125 220
240 226 206 249 278 254 263 275 286 292 293 289 297 163 214 144 142 138 141 150 155 161 164 162 163 168 174 175 176 177 189 177 175 172 170 160 158 154 140 130 134 127 122 103
219 180 250 232 250 233 217 260 281 287 278 241 189 90 78 341 132 142 152 162 164 167 166 166 169 172 178 178 177 192 196 191 183 188 181 172 175 177 166 159 154 146 138 132
238 212 225 227 254 258 216 259 294 294 287 44 147 135 95 335 242 157 158 163 167 171 171 171 172 173 173 167 180 185 182 185 196 197 197 198 184 179 177 173 172 170 162 163
228 229 232 227 240 247 208 230 248 256 241 286 127 142 142 189 262 166 159 164 154 169 177 175 176 174 174 173 182 183 184 179 181 189 194 195 198 203 216 218 201 196 188 186
205 225 219 229 225 241 221 215 214 218 145 174 169 151 170 166 182 199 172 168 174 176 178 179 180 177 180 183 186 189 191 190 188 183 186 196 205 215 217 226 223 203 188 198
225 215 211 196 217 226 227 212 197 195 188 157 176 133 139 153 186 192 178 173 171 174 181 182 181 180 181 186 191 193 191 190 194 201 198 208 213 210 218 229 234 236 224 200
218 223 223 204 224 217 201 217 204 196 188 180 159 174 172 180 186 191 175 170 165 169 189 187 184 187 187 186 190 195 195 200 210 217 212 216 215 218 226 236 233 230 232 229
239 222 213 214 180 164 195 222 215 184 168 165 203 242 184 194 185 185 177 170 178 185 183 184 186 189 189 191 191 192 199 212 221 228 231 236 242 234 235 244 238 244 239 232
233 214 201 187 169 169 173 186 199 181 187 165 187 202 201 190 187 179 163 167 192 192 188 186 188 192 192 190 191 199 214 221 216 235 240 241 241 246 253 241 248 239 239 238
150 164 172 168 177 170 178 184 183 176 171 174 187 185 181 183 181 177 188 187 184 190 190 190 195 200 199 196 200 200 205 224 242 268 248 239 243 233 229 228 224 234 238 241
128 138 142 170 187 164 162 174 168 144 130 151 167 168 182 178 179 169 177 191 188 192 197 201 203 204 205 207 209 219 224 231 243 256 250 238 239 236 233 234 238 242 252 254
114 110 169 202 136 159 185 136 201 149 115 109 135 173 161 158 169 181 189 200 197 200 205 213 218 216 213 216 216 218 223 227 231 231 242 270 245 240 245 251 243 255 258 257
87 168 161 146 139 133 119 187 82 54 70 70 72 101 158 184 180 183 190 203 209 218 220 223 229 230 224 225 224 223 231 235 238 241 251 281 270 246 244 247 258 247 245 238
46 71 89 114 131 173 145 103 60 79 78 62 64 163 174 150 161 183 202 216 220 223 233 244 238 238 224 224 228 232 242 242 238 244 253 257 248 228 228 234 233 222 221 236
60 67 65 66 62 149 176 164 145 145 165 198 197 191 211 216 214 219 217 223 219 206 206 213 216 206 237 231 222 213 208 199 191 187 180 164 150 153 163 175 190 225 269 285